Location: Ailingen
(47.6833°N, 9.5000°E)
Time: 11:08:43
(UTC+00:00)

SMAP - Pass Details

Date: 18 November 2025
Orbit: 681 x 683 km, 98.1° (Epoch: 11 December)

Event Time Altitude Azimuth Distance (km) Brightness Sun altitude
Rises 16:34:08 0° 162° (SSE) 3,034 6.4 -8.9°
Reaches altitude 10° 16:36:22 10° 162° (SSE) 2,122 5.6 -9.2°
Maximum altitude 16:41:01 83° 75° (ENE) 695 3.0 -10.0°
Drops below altitude 10° 16:45:42 10° 348° (NNW) 2,138 5.6 -10.7°
Sets 16:47:57 0° 347° (NNW) 3,058 6.4 -11.1°
